Time,TemperatureF,DewpointF,PressureIn,WindDirection,WindDirectionDegrees,WindSpeedMPH,WindSpeedGustMPH,Humidity,HourlyPrecipIn,Conditions,Clouds,dailyrainin,SoftwareType,DateUTC
2013-01-17 00:00:00,33.4,32.9,29.74,NNW,338,0.0,0.0,98,0.00,,OVC,0.00,VWS V14.01,2013-01-17 05:00:00,
2013-01-17 00:01:00,33.4,32.9,29.74,NNW,338,0.0,0.0,98,0.00,,OVC,0.00,VWS V14.01,2013-01-17 05:01:00,
2013-01-17 00:03:00,33.4,32.9,29.74,NW,315,2.5,2.5,98,0.00,,OVC,0.00,VWS V14.01,2013-01-17 05:03:00,
2013-01-17 00:08:00,33.3,32.8,29.74,NNW,338,0.0,0.0,98,0.00,,OVC,0.00,VWS V14.01,2013-01-17 05:08:00,
2013-01-17 00:13:00,33.3,32.8,29.74,NNW,338,0.0,0.0,98,0.00,,OVC,0.00,VWS V14.01,2013-01-17 05:13:00,
2013-01-17 00:18:00,33.3,32.8,29.74,NNW,338,4.0,4.0,98,0.00,,OVC,0.00,VWS V14.01,2013-01-17 05:18:00,
2013-01-17 00:23:00,33.3,32.8,29.74,NNW,338,0.0,0.0,98,0.00,,OVC,0.00,VWS V14.01,2013-01-17 05:23:00,
2013-01-17 00:28:00,33.3,32.8,29.74,WNW,292,0.0,0.9,98,0.00,,OVC,0.00,VWS V14.01,2013-01-17 05:28:00,
2013-01-17 00:30:00,33.3,32.8,29.74,WNW,292,0.0,0.0,98,0.00,,OVC,0.00,VWS V14.01,2013-01-17 05:30:00,
2013-01-17 00:33:00,33.3,32.8,29.74,NNW,338,0.0,0.0,98,0.00,,OVC,0.00,VWS V14.01,2013-01-17 05:33:00,
2013-01-17 00:38:00,33.1,32.6,29.74,NNW,338,0.0,0.0,98,0.00,,OVC,0.00,VWS V14.01,2013-01-17 05:38:00,
2013-01-17 00:43:00,33.1,32.6,29.74,NNW,338,0.0,0.0,98,0.00,,OVC,0.00,VWS V14.01,2013-01-17 05:43:00,
2013-01-17 00:48:00,33.1,32.6,29.74,NNW,338,0.0,0.0,98,0.00,,OVC,0.00,VWS V14.01,2013-01-17 05:48:00,
2013-01-17 00:53:00,33.1,32.6,29.74,NNW,338,0.0,0.0,98,0.00,,OVC,0.00,VWS V14.01,2013-01-17 05:53:00,
2013-01-17 00:58:00,33.1,32.6,29.74,NNW,338,0.0,0.0,98,0.00,,OVC,0.00,VWS V14.01,2013-01-17 05:58:00,
2013-01-17 01:00:00,33.1,32.6,29.74,NNW,338,0.0,0.0,98,0.00,,OVC,0.00,VWS V14.01,2013-01-17 06:00:00,
2013-01-17 01:03:00,33.1,32.6,29.74,NNW,338,0.0,0.0,98,0.00,,OVC,0.00,VWS V14.01,2013-01-17 06:03:00,
2013-01-17 01:08:00,33.1,32.6,29.74,NNW,338,0.0,0.0,98,0.00,,OVC,0.00,VWS V14.01,2013-01-17 06:08:00,
2013-01-17 01:13:00,33.1,32.6,29.74,NNW,338,0.0,0.0,98,0.00,,OVC,0.00,VWS V14.01,2013-01-17 06:13:00,
2013-01-17 01:18:00,33.1,32.6,29.74,NNW,338,0.0,0.0,98,0.00,,OVC,0.00,VWS V14.01,2013-01-17 06:18:00,
2013-01-17 01:23:00,33.1,32.6,29.74,NNW,338,0.0,0.0,98,0.00,,OVC,0.00,VWS V14.01,2013-01-17 06:23:00,
2013-01-17 01:28:00,33.1,32.6,29.74,NNW,338,0.0,0.0,98,0.00,,OVC,0.00,VWS V14.01,2013-01-17 06:28:00,
2013-01-17 01:30:00,33.1,32.6,29.74,NNW,338,0.0,0.0,98,0.00,,OVC,0.00,VWS V14.01,2013-01-17 06:30:00,
2013-01-17 01:34:00,33.1,32.6,29.74,NNW,338,0.0,0.0,98,0.00,,OVC,0.00,VWS V14.01,2013-01-17 06:34:00,
2013-01-17 01:39:00,33.1,32.6,29.74,WNW,292,5.4,5.4,98,0.00,,OVC,0.00,VWS V14.01,2013-01-17 06:39:00,
2013-01-17 01:44:00,32.9,32.4,29.74,NW,315,0.0,0.0,98,0.00,,OVC,0.00,VWS V14.01,2013-01-17 06:44:00,
2013-01-17 01:49:00,32.9,32.4,29.74,NW,315,0.0,3.4,98,0.00,,OVC,0.00,VWS V14.01,2013-01-17 06:49:00,
2013-01-17 01:54:00,32.9,32.4,29.74,WNW,292,0.0,3.6,98,0.00,,OVC,0.00,VWS V14.01,2013-01-17 06:54:00,
2013-01-17 01:59:00,32.9,32.4,29.74,WNW,292,3.4,3.4,98,0.00,,OVC,0.00,VWS V14.01,2013-01-17 06:59:00,
2013-01-17 02:00:00,32.9,32.4,29.74,SSW,202,3.4,3.4,98,0.00,,OVC,0.00,VWS V14.01,2013-01-17 07:00:00,
2013-01-17 02:04:00,32.9,32.4,29.74,West,270,0.0,0.0,98,0.00,,OVC,0.00,VWS V14.01,2013-01-17 07:04:00,
2013-01-17 02:09:00,32.9,32.4,29.74,West,270,1.3,3.6,98,0.00,,OVC,0.00,VWS V14.01,2013-01-17 07:09:00,
2013-01-17 02:14:00,32.9,32.4,29.74,NNW,338,2.9,3.1,98,0.00,,OVC,0.00,VWS V14.01,2013-01-17 07:14:00,
2013-01-17 02:19:00,32.9,32.4,29.74,WSW,248,0.0,3.1,98,0.00,,OVC,0.00,VWS V14.01,2013-01-17 07:19:00,
2013-01-17 02:24:00,32.9,32.4,29.71,WSW,248,0.0,3.8,98,0.00,,OVC,0.00,VWS V14.01,2013-01-17 07:24:00,
2013-01-17 02:29:00,32.9,32.4,29.71,NNW,338,4.0,6.3,98,0.00,,OVC,0.00,VWS V14.01,2013-01-17 07:29:00,
2013-01-17 02:30:00,32.9,32.4,29.71,WNW,292,6.3,6.3,98,0.00,,OVC,0.00,VWS V14.01,2013-01-17 07:30:00,
2013-01-17 02:34:00,32.0,31.5,29.71,NW,315,4.7,4.7,98,0.00,,OVC,0.00,VWS V14.01,2013-01-17 07:34:00,
2013-01-17 02:39:00,31.8,31.3,29.74,NW,315,4.9,6.5,98,0.00,,OVC,0.00,VWS V14.01,2013-01-17 07:39:00,
2013-01-17 02:44:00,31.6,31.1,29.74,NNW,338,3.4,8.5,98,0.00,,OVC,0.00,VWS V14.01,2013-01-17 07:44:00,
2013-01-17 02:49:00,31.6,31.1,29.74,WNW,292,2.0,3.1,98,0.00,,OVC,0.00,VWS V14.01,2013-01-17 07:49:00,
2013-01-17 02:54:00,31.5,31.0,29.74,NW,315,3.4,3.4,98,0.00,,OVC,0.00,VWS V14.01,2013-01-17 07:54:00,
2013-01-17 02:59:00,31.3,30.8,29.74,NW,315,3.8,4.0,98,0.00,,OVC,0.00,VWS V14.01,2013-01-17 07:59:00,
2013-01-17 03:00:00,31.3,30.8,29.74,WSW,248,2.0,3.4,98,0.00,,OVC,0.00,VWS V14.01,2013-01-17 08:00:00,
2013-01-17 03:04:00,31.1,30.6,29.74,WNW,292,6.5,7.8,98,0.00,,OVC,0.00,VWS V14.01,2013-01-17 08:04:00,
2013-01-17 03:09:00,31.1,30.6,29.74,NW,315,3.4,4.3,98,0.00,,OVC,0.00,VWS V14.01,2013-01-17 08:09:00,
2013-01-17 03:14:00,30.9,30.4,29.74,NNW,338,4.9,7.2,98,0.00,,OVC,0.00,VWS V14.01,2013-01-17 08:14:00,
2013-01-17 03:19:00,30.7,30.2,29.74,WNW,292,6.3,6.5,98,0.00,,OVC,0.00,VWS V14.01,2013-01-17 08:19:00,
2013-01-17 03:24:00,30.6,29.8,29.74,WNW,292,4.9,7.6,97,0.00,,OVC,0.00,VWS V14.01,2013-01-17 08:24:00,
2013-01-17 03:29:00,30.6,29.8,29.74,NW,315,6.3,6.3,97,0.00,,OVC,0.00,VWS V14.01,2013-01-17 08:29:00,
2013-01-17 03:30:00,30.6,29.8,29.74,WNW,292,7.4,7.4,97,0.00,,OVC,0.00,VWS V14.01,2013-01-17 08:30:00,
2013-01-17 03:34:00,30.4,29.4,29.74,NNW,338,3.8,6.5,96,0.00,,OVC,0.00,VWS V14.01,2013-01-17 08:34:00,
2013-01-17 03:39:00,30.2,29.2,29.71,NNW,338,5.8,7.8,96,0.00,,OVC,0.00,VWS V14.01,2013-01-17 08:39:00,
2013-01-17 03:44:00,30.2,29.2,29.71,NNW,338,3.6,7.4,96,0.00,,OVC,0.00,VWS V14.01,2013-01-17 08:44:00,
2013-01-17 03:49:00,30.2,29.2,29.71,NNW,338,11.0,11.0,96,0.00,,OVC,0.00,VWS V14.01,2013-01-17 08:49:00,
2013-01-17 03:54:00,30.0,29.0,29.74,NNW,338,5.4,6.0,96,0.00,,OVC,0.00,VWS V14.01,2013-01-17 08:54:00,
2013-01-17 03:59:00,30.0,29.0,29.74,NNW,338,2.5,3.8,96,0.00,,OVC,0.00,VWS V14.01,2013-01-17 08:59:00,
2013-01-17 04:00:00,30.0,29.0,29.74,NNW,338,4.0,6.5,96,0.00,,OVC,0.00,VWS V14.01,2013-01-17 09:00:00,
2013-01-17 04:04:00,30.0,29.0,29.74,WSW,248,2.5,4.3,96,0.00,,OVC,0.00,VWS V14.01,2013-01-17 09:04:00,
2013-01-17 04:09:00,30.0,29.0,29.74,West,270,1.3,2.5,96,0.00,,OVC,0.00,VWS V14.01,2013-01-17 09:09:00,
2013-01-17 04:14:00,29.8,28.8,29.74,WNW,292,4.3,5.4,96,0.00,,OVC,0.00,VWS V14.01,2013-01-17 09:14:00,
2013-01-17 04:19:00,29.8,28.8,29.74,NNW,338,3.4,3.4,96,0.00,,OVC,0.00,VWS V14.01,2013-01-17 09:19:00,
2013-01-17 04:24:00,29.5,28.5,29.74,NNW,338,2.9,3.1,96,0.00,,OVC,0.00,VWS V14.01,2013-01-17 09:24:00,
2013-01-17 04:29:00,29.3,28.3,29.74,WNW,292,3.8,4.7,96,0.00,,OVC,0.00,VWS V14.01,2013-01-17 09:29:00,
2013-01-17 04:30:00,29.5,28.5,29.74,West,270,3.1,4.0,96,0.00,,OVC,0.00,VWS V14.01,2013-01-17 09:30:00,
2013-01-17 04:34:00,29.1,28.1,29.74,WNW,292,0.0,2.5,96,0.00,,OVC,0.00,VWS V14.01,2013-01-17 09:34:00,
2013-01-17 04:39:00,28.9,27.7,29.74,NNW,338,0.0,3.4,95,0.00,,OVC,0.00,VWS V14.01,2013-01-17 09:39:00,
2013-01-17 04:44:00,28.6,27.3,29.74,NNW,338,0.0,2.5,95,0.00,,OVC,0.00,VWS V14.01,2013-01-17 09:44:00,
2013-01-17 04:50:00,28.6,27.3,29.74,NW,315,0.0,2.5,95,0.00,,OVC,0.00,VWS V14.01,2013-01-17 09:50:00,
2013-01-17 04:55:00,28.2,27.2,29.74,WNW,292,0.0,2.0,96,0.00,,OVC,0.00,VWS V14.01,2013-01-17 09:55:00,
2013-01-17 05:00:00,28.0,27.0,29.74,WNW,292,0.0,1.3,96,0.00,,OVC,0.00,VWS V14.01,2013-01-17 10:00:00,
2013-01-17 05:04:00,27.9,26.6,29.74,WNW,292,2.0,2.0,95,0.00,,OVC,0.00,VWS V14.01,2013-01-17 10:04:00,
2013-01-17 05:09:00,27.9,26.9,29.71,WNW,292,2.9,2.9,96,0.00,,OVC,0.00,VWS V14.01,2013-01-17 10:09:00,
2013-01-17 05:14:00,27.7,26.7,29.71,WNW,292,2.0,2.9,96,0.00,,OVC,0.00,VWS V14.01,2013-01-17 10:14:00,
2013-01-17 05:20:00,27.3,26.3,29.71,WNW,292,0.0,0.0,96,0.00,,OVC,0.00,VWS V14.01,2013-01-17 10:20:00,
2013-01-17 05:25:00,27.1,25.9,29.74,WNW,292,2.2,2.2,95,0.00,,OVC,0.00,VWS V14.01,2013-01-17 10:25:00,
2013-01-17 05:30:00,27.0,26.0,29.74,WNW,292,0.0,1.3,96,0.00,,OVC,0.00,VWS V14.01,2013-01-17 10:30:00,
2013-01-17 05:35:00,27.0,26.0,29.74,WNW,292,1.6,1.6,96,0.00,,OVC,0.00,VWS V14.01,2013-01-17 10:35:00,
2013-01-17 05:40:00,27.0,26.0,29.74,WNW,292,1.1,4.0,96,0.00,,OVC,0.00,VWS V14.01,2013-01-17 10:40:00,
2013-01-17 05:45:00,27.0,26.0,29.74,NW,315,3.1,3.1,96,0.00,,OVC,0.00,VWS V14.01,2013-01-17 10:45:00,
2013-01-17 05:50:00,27.0,26.2,29.74,WNW,292,2.0,4.5,97,0.00,,OVC,0.00,VWS V14.01,2013-01-17 10:50:00,
2013-01-17 05:55:00,26.8,26.0,29.71,WNW,292,1.3,2.2,97,0.00,,OVC,0.00,VWS V14.01,2013-01-17 10:55:00,
2013-01-17 06:00:00,26.4,25.7,29.71,WNW,292,0.0,2.9,97,0.00,,OVC,0.00,VWS V14.01,2013-01-17 11:00:00,
2013-01-17 06:05:00,26.2,25.5,29.71,NW,315,1.3,2.7,97,0.00,,OVC,0.00,VWS V14.01,2013-01-17 11:05:00,
2013-01-17 06:10:00,26.1,25.3,29.71,NW,315,0.0,2.5,97,0.00,,OVC,0.00,VWS V14.01,2013-01-17 11:10:00,
2013-01-17 06:15:00,26.1,25.3,29.71,NW,315,0.0,0.0,97,0.00,,OVC,0.00,VWS V14.01,2013-01-17 11:15:00,
2013-01-17 06:20:00,25.7,25.0,29.71,NW,315,0.0,0.0,97,0.00,,OVC,0.00,VWS V14.01,2013-01-17 11:20:00,
2013-01-17 06:25:00,25.5,24.8,29.74,NW,315,0.0,0.0,97,0.00,,OVC,0.00,VWS V14.01,2013-01-17 11:25:00,
2013-01-17 06:30:00,25.3,24.6,29.74,NW,315,3.1,4.7,97,0.00,,OVC,0.00,VWS V14.01,2013-01-17 11:30:00,
2013-01-17 06:35:00,25.7,25.0,29.74,NW,315,1.3,1.3,97,0.00,,OVC,0.00,VWS V14.01,2013-01-17 11:35:00,
2013-01-17 06:40:00,25.7,25.2,29.74,NW,315,0.0,0.0,98,0.00,,OVC,0.00,VWS V14.01,2013-01-17 11:40:00,
2013-01-17 06:45:00,25.5,25.0,29.74,NW,315,0.0,0.0,98,0.00,,OVC,0.00,VWS V14.01,2013-01-17 11:45:00,
2013-01-17 06:50:00,25.3,24.9,29.74,NW,315,0.0,1.6,98,0.00,,OVC,0.00,VWS V14.01,2013-01-17 11:50:00,
2013-01-17 06:55:00,25.3,24.9,29.74,NW,315,1.3,3.1,98,0.00,,OVC,0.00,VWS V14.01,2013-01-17 11:55:00,
2013-01-17 07:00:00,25.3,24.9,29.74,NW,315,1.6,2.9,98,0.00,,OVC,0.00,VWS V14.01,2013-01-17 12:00:00,
2013-01-17 07:05:00,25.3,24.9,29.74,NNW,338,2.7,2.7,98,0.00,,OVC,0.00,VWS V14.01,2013-01-17 12:05:00,
2013-01-17 07:10:00,25.3,24.9,29.74,NNW,338,1.6,2.5,98,0.00,,OVC,0.00,VWS V14.01,2013-01-17 12:10:00,
2013-01-17 07:15:00,25.3,24.9,29.74,NNW,338,0.0,0.0,98,0.00,,OVC,0.00,VWS V14.01,2013-01-17 12:15:00,
2013-01-17 07:20:00,25.3,24.9,29.74,NNW,338,2.5,2.5,98,0.00,,OVC,0.00,VWS V14.01,2013-01-17 12:20:00,
2013-01-17 07:25:00,25.3,24.9,29.76,NNW,338,2.7,2.7,98,0.00,,OVC,0.00,VWS V14.01,2013-01-17 12:25:00,
2013-01-17 07:30:00,25.3,24.9,29.76,NNW,338,2.5,3.4,98,0.00,,OVC,0.00,VWS V14.01,2013-01-17 12:30:00,
2013-01-17 07:35:00,25.3,24.9,29.76,NNW,338,2.0,3.1,98,0.00,,OVC,0.00,VWS V14.01,2013-01-17 12:35:00,
2013-01-17 07:40:00,25.3,24.9,29.76,NNW,338,2.7,2.7,98,0.00,,OVC,0.00,VWS V14.01,2013-01-17 12:40:00,
2013-01-17 07:45:00,25.3,24.9,29.76,NNW,338,2.0,2.7,98,0.00,,OVC,0.00,VWS V14.01,2013-01-17 12:45:00,
2013-01-17 07:50:00,25.3,24.9,29.76,NNW,338,2.7,3.1,98,0.00,,OVC,0.00,VWS V14.01,2013-01-17 12:50:00,
2013-01-17 07:55:00,25.5,25.0,29.76,NNW,338,0.0,0.0,98,0.00,,OVC,0.00,VWS V14.01,2013-01-17 12:55:00,
2013-01-17 08:00:00,25.9,25.4,29.76,NNW,338,0.0,1.6,98,0.00,,OVC,0.00,VWS V14.01,2013-01-17 13:00:00,
2013-01-17 08:05:00,26.1,25.6,29.76,NNW,338,2.2,2.7,98,0.00,,OVC,0.00,VWS V14.01,2013-01-17 13:05:00,
2013-01-17 08:10:00,26.2,25.8,29.76,NNW,338,2.2,2.5,98,0.00,,OVC,0.00,VWS V14.01,2013-01-17 13:10:00,
2013-01-17 08:15:00,26.2,25.8,29.76,NNW,338,0.0,0.0,98,0.00,,OVC,0.00,VWS V14.01,2013-01-17 13:15:00,
2013-01-17 08:20:00,26.2,25.8,29.76,NNW,338,0.0,0.0,98,0.00,,OVC,0.00,VWS V14.01,2013-01-17 13:20:00,
2013-01-17 08:25:00,26.2,25.5,29.79,NNW,338,0.9,0.9,97,0.00,,OVC,0.00,VWS V14.01,2013-01-17 13:25:00,
2013-01-17 08:30:00,26.2,25.5,29.79,NNW,338,2.2,2.2,97,0.00,,OVC,0.00,VWS V14.01,2013-01-17 13:30:00,
2013-01-17 08:35:00,26.6,25.9,29.79,NNW,338,0.9,2.9,97,0.00,,OVC,0.00,VWS V14.01,2013-01-17 13:35:00,
2013-01-17 08:40:00,27.1,26.4,29.79,NNW,338,0.0,0.0,97,0.00,,OVC,0.00,VWS V14.01,2013-01-17 13:40:00,
2013-01-17 08:45:00,27.5,26.8,29.79,NNW,338,0.0,1.3,97,0.00,,OVC,0.00,VWS V14.01,2013-01-17 13:45:00,
2013-01-17 08:50:00,28.4,27.9,29.79,NNW,338,2.7,2.7,98,0.00,,OVC,0.00,VWS V14.01,2013-01-17 13:50:00,
2013-01-17 08:55:00,28.6,27.8,29.79,NNW,338,0.0,0.0,97,0.00,,OVC,0.00,VWS V14.01,2013-01-17 13:55:00,
2013-01-17 09:00:00,28.9,28.2,29.79,NNW,338,0.0,1.3,97,0.00,,OVC,0.00,VWS V14.01,2013-01-17 14:00:00,
2013-01-17 09:05:00,29.3,28.3,29.79,NNW,338,2.2,3.1,96,0.00,,OVC,0.00,VWS V14.01,2013-01-17 14:05:00,
2013-01-17 09:10:00,29.8,28.8,29.76,NNW,338,1.1,2.7,96,0.00,,OVC,0.00,VWS V14.01,2013-01-17 14:10:00,
2013-01-17 09:16:00,31.1,30.1,29.76,NNW,338,1.3,1.6,96,0.00,,OVC,0.00,VWS V14.01,2013-01-17 14:16:00,
2013-01-17 09:21:00,31.8,30.5,29.76,NNW,338,2.7,3.8,95,0.00,,OVC,0.00,VWS V14.01,2013-01-17 14:21:00,
2013-01-17 09:26:00,32.5,30.5,29.79,NNW,338,2.2,2.7,92,0.00,,OVC,0.00,VWS V14.01,2013-01-17 14:26:00,
2013-01-17 09:30:00,32.5,30.2,29.80,NNW,338,2.5,2.5,91,0.00,,OVC,0.00,VWS V14.01,2013-01-17 14:30:00,
2013-01-17 09:31:00,32.7,29.8,29.79,NNW,338,2.7,4.0,89,0.00,,OVC,0.00,VWS V14.01,2013-01-17 14:31:00,
2013-01-17 09:36:00,33.8,30.1,29.79,NNW,338,2.7,4.0,86,0.00,,OVC,0.00,VWS V14.01,2013-01-17 14:36:00,
2013-01-17 09:41:00,35.1,29.8,29.79,NNW,338,3.6,3.8,81,0.00,,OVC,0.00,VWS V14.01,2013-01-17 14:41:00,
2013-01-17 09:46:00,35.1,27.6,29.79,NNW,338,4.0,4.3,74,0.00,,OVC,0.00,VWS V14.01,2013-01-17 14:46:00,
2013-01-17 09:51:00,36.5,27.3,29.79,NNW,338,2.7,3.6,69,0.00,,OVC,0.00,VWS V14.01,2013-01-17 14:51:00,
2013-01-17 09:56:00,37.2,27.3,29.79,NW,315,0.9,3.8,67,0.00,,OVC,0.00,VWS V14.01,2013-01-17 14:56:00,
2013-01-17 10:00:00,37.2,27.3,29.80,NW,315,4.7,4.7,67,0.00,,OVC,0.00,VWS V14.01,2013-01-17 15:00:00,
2013-01-17 10:01:00,37.9,26.5,29.79,NNW,338,2.9,3.6,63,0.00,,OVC,0.00,VWS V14.01,2013-01-17 15:01:00,
2013-01-17 10:06:00,38.7,26.8,29.79,NNW,338,2.9,3.6,62,0.00,,OVC,0.00,VWS V14.01,2013-01-17 15:06:00,
2013-01-17 10:11:00,39.7,26.2,29.79,NNW,338,3.1,3.1,58,0.00,,OVC,0.00,VWS V14.01,2013-01-17 15:11:00,
2013-01-17 10:16:00,40.6,26.6,29.79,WNW,292,3.4,4.3,57,0.00,,OVC,0.00,VWS V14.01,2013-01-17 15:16:00,
2013-01-17 10:21:00,39.4,23.2,29.79,NW,315,3.8,5.6,52,0.00,,OVC,0.00,VWS V14.01,2013-01-17 15:21:00,
2013-01-17 10:26:00,40.3,24.5,29.79,NNW,338,2.7,3.8,53,0.00,,OVC,0.00,VWS V14.01,2013-01-17 15:26:00,
2013-01-17 10:30:00,40.3,24.5,29.80,NNW,338,2.0,4.0,53,0.00,,OVC,0.00,VWS V14.01,2013-01-17 15:30:00,
2013-01-17 10:31:00,41.0,25.6,29.79,NNW,338,2.9,4.0,54,0.00,,OVC,0.00,VWS V14.01,2013-01-17 15:31:00,
2013-01-17 10:36:00,40.3,24.1,29.79,NNW,338,5.4,5.4,52,0.00,,OVC,0.00,VWS V14.01,2013-01-17 15:36:00,
2013-01-17 10:41:00,41.4,25.5,29.76,NW,315,3.4,4.0,53,0.00,,OVC,0.00,VWS V14.01,2013-01-17 15:41:00,
2013-01-17 10:46:00,41.2,24.0,29.76,WNW,292,6.0,6.0,50,0.00,,OVC,0.00,VWS V14.01,2013-01-17 15:46:00,
2013-01-17 10:51:00,42.1,24.8,29.76,WNW,292,3.1,5.6,50,0.00,,OVC,0.00,VWS V14.01,2013-01-17 15:51:00,
2013-01-17 10:56:00,41.9,25.6,29.79,South,180,3.8,3.8,52,0.00,,OVC,0.00,VWS V14.01,2013-01-17 15:56:00,
2013-01-17 11:00:00,42.1,25.3,29.80,WSW,248,3.1,3.8,51,0.00,,OVC,0.00,VWS V14.01,2013-01-17 16:00:00,
2013-01-17 11:01:00,42.3,25.4,29.79,WNW,292,6.3,6.3,51,0.00,,OVC,0.00,VWS V14.01,2013-01-17 16:01:00,
2013-01-17 11:06:00,42.8,25.9,29.82,WNW,292,3.1,3.1,51,0.00,,OVC,0.00,VWS V14.01,2013-01-17 16:06:00,
2013-01-17 11:11:00,44.2,26.8,29.82,NNW,338,2.9,4.0,50,0.00,,OVC,0.00,VWS V14.01,2013-01-17 16:11:00,
2013-01-17 11:16:00,43.3,24.0,29.82,West,270,2.9,4.9,46,0.00,,OVC,0.00,VWS V14.01,2013-01-17 16:16:00,
2013-01-17 11:21:00,44.8,24.8,29.79,West,270,2.5,4.3,45,0.00,,OVC,0.00,VWS V14.01,2013-01-17 16:21:00,
2013-01-17 11:26:00,45.5,23.8,29.79,WNW,292,3.8,10.1,42,0.00,,OVC,0.00,VWS V14.01,2013-01-17 16:26:00,
2013-01-17 11:30:00,45.3,23.0,29.80,WNW,292,7.2,10.1,41,0.00,,OVC,0.00,VWS V14.01,2013-01-17 16:30:00,
2013-01-17 11:31:00,44.4,23.3,29.79,WNW,292,3.6,6.5,43,0.00,,OVC,0.00,VWS V14.01,2013-01-17 16:31:00,
2013-01-17 11:36:00,44.6,23.5,29.76,WSW,248,3.8,5.8,43,0.00,,OVC,0.00,VWS V14.01,2013-01-17 16:36:00,
2013-01-17 11:41:00,46.0,24.8,29.76,NW,315,2.9,4.9,43,0.00,,OVC,0.00,VWS V14.01,2013-01-17 16:41:00,
2013-01-17 11:46:00,45.7,23.4,29.76,NW,315,6.0,7.2,41,0.00,,OVC,0.00,VWS V14.01,2013-01-17 16:46:00,
2013-01-17 11:51:00,44.1,22.5,29.79,WNW,292,4.7,8.1,42,0.00,,OVC,0.00,VWS V14.01,2013-01-17 16:51:00,
2013-01-17 11:56:00,45.3,24.2,29.79,NNW,338,2.9,3.1,43,0.00,,OVC,0.00,VWS V14.01,2013-01-17 16:56:00,
2013-01-17 12:00:00,45.3,23.6,29.80,NW,315,4.3,6.3,42,0.00,,OVC,0.00,VWS V14.01,2013-01-17 17:00:00,
2013-01-17 12:01:00,45.0,23.3,29.79,NNW,338,4.0,6.3,42,0.00,,OVC,0.00,VWS V14.01,2013-01-17 17:01:00,
2013-01-17 12:06:00,44.8,23.1,29.79,WNW,292,3.8,4.9,42,0.00,,OVC,0.00,VWS V14.01,2013-01-17 17:06:00,
2013-01-17 12:11:00,42.8,23.0,29.79,NNW,338,7.2,7.2,45,0.00,,OVC,0.00,VWS V14.01,2013-01-17 17:11:00,
2013-01-17 12:16:00,42.8,24.5,29.79,NNW,338,5.8,5.8,48,0.00,,OVC,0.00,VWS V14.01,2013-01-17 17:16:00,
2013-01-17 12:21:00,42.4,24.6,29.79,WNW,292,6.3,6.3,49,0.00,,OVC,0.00,VWS V14.01,2013-01-17 17:21:00,
2013-01-17 12:26:00,40.1,23.0,29.79,NW,315,6.3,9.6,50,0.00,,OVC,0.00,VWS V14.01,2013-01-17 17:26:00,
2013-01-17 12:30:00,40.1,23.0,29.80,NW,315,4.9,9.6,50,0.00,,OVC,0.00,VWS V14.01,2013-01-17 17:30:00,
2013-01-17 12:31:00,38.5,22.4,29.79,NW,315,9.6,12.8,52,0.00,,OVC,0.00,VWS V14.01,2013-01-17 17:31:00,
2013-01-17 12:37:00,37.6,22.9,29.82,NNW,338,13.6,13.6,55,0.00,,OVC,0.00,VWS V14.01,2013-01-17 17:37:00,
2013-01-17 12:41:00,37.0,23.6,29.82,NNW,338,5.4,10.7,58,0.00,,OVC,0.00,VWS V14.01,2013-01-17 17:41:00,
2013-01-17 12:47:00,37.0,22.4,29.82,NNW,338,8.7,12.5,55,0.00,,OVC,0.00,VWS V14.01,2013-01-17 17:47:00,
2013-01-17 12:52:00,37.2,23.0,29.85,NNW,338,7.8,10.1,56,0.00,,OVC,0.00,VWS V14.01,2013-01-17 17:52:00,
2013-01-17 12:57:00,36.9,21.8,29.85,NW,315,10.3,17.9,54,0.00,,OVC,0.00,VWS V14.01,2013-01-17 17:57:00,
2013-01-17 13:00:00,36.9,21.8,29.85,NNW,338,7.6,16.8,54,0.00,,OVC,0.00,VWS V14.01,2013-01-17 18:00:00,
2013-01-17 13:02:00,36.7,22.9,29.85,NNW,338,8.1,9.6,57,0.00,,OVC,0.00,VWS V14.01,2013-01-17 18:02:00,
2013-01-17 13:07:00,36.0,23.0,29.85,NNW,338,12.3,13.2,59,0.00,,OVC,0.00,VWS V14.01,2013-01-17 18:07:00,
2013-01-17 13:12:00,35.4,24.1,29.85,NW,315,10.1,10.1,63,0.00,,OVC,0.00,VWS V14.01,2013-01-17 18:12:00,
2013-01-17 13:17:00,35.2,25.4,29.85,NNW,338,7.6,10.1,67,0.00,,OVC,0.00,VWS V14.01,2013-01-17 18:17:00,
2013-01-17 13:22:00,36.0,26.1,29.85,WNW,292,9.6,11.9,67,0.00,,OVC,0.00,VWS V14.01,2013-01-17 18:22:00,
2013-01-17 13:27:00,36.1,25.9,29.85,NW,315,6.3,8.5,66,0.00,,OVC,0.00,VWS V14.01,2013-01-17 18:27:00,
2013-01-17 13:30:00,36.1,25.9,29.85,NW,315,6.3,8.5,66,0.00,,OVC,0.00,VWS V14.01,2013-01-17 18:30:00,
2013-01-17 13:32:00,37.0,24.5,29.85,NNW,338,9.6,13.2,60,0.00,,OVC,0.00,VWS V14.01,2013-01-17 18:32:00,
2013-01-17 13:37:00,36.7,22.5,29.85,NNW,338,8.5,12.5,56,0.00,,OVC,0.00,VWS V14.01,2013-01-17 18:37:00,
2013-01-17 13:42:00,36.3,20.8,29.85,NNW,338,10.7,10.7,53,0.00,,OVC,0.00,VWS V14.01,2013-01-17 18:42:00,
2013-01-17 13:47:00,35.4,19.6,29.85,NNW,338,8.5,15.4,52,0.00,,OVC,0.00,VWS V14.01,2013-01-17 18:47:00,
2013-01-17 13:52:00,34.9,18.6,29.88,WNW,292,11.9,20.1,51,0.00,,OVC,0.00,VWS V14.01,2013-01-17 18:52:00,
2013-01-17 13:57:00,34.5,16.9,29.88,NW,315,11.4,14.1,48,0.00,,OVC,0.00,VWS V14.01,2013-01-17 18:57:00,
2013-01-17 14:00:00,34.5,16.9,29.88,NNW,338,15.4,15.4,48,0.00,,OVC,0.00,VWS V14.01,2013-01-17 19:00:00,
2013-01-17 14:02:00,34.3,17.6,29.88,NNW,338,7.6,10.1,50,0.00,,OVC,0.00,VWS V14.01,2013-01-17 19:02:00,
2013-01-17 14:07:00,34.3,15.7,29.85,NNW,338,10.1,11.4,46,0.00,,OVC,0.00,VWS V14.01,2013-01-17 19:07:00,
2013-01-17 14:12:00,34.0,14.9,29.85,NW,315,11.9,13.2,45,0.00,,OVC,0.00,VWS V14.01,2013-01-17 19:12:00,
2013-01-17 14:17:00,33.8,15.2,29.85,NNW,338,9.8,9.8,46,0.00,,OVC,0.00,VWS V14.01,2013-01-17 19:17:00,
2013-01-17 14:22:00,33.6,14.6,29.88,NNW,338,9.4,13.2,45,0.00,,OVC,0.00,VWS V14.01,2013-01-17 19:22:00,
2013-01-17 14:27:00,33.3,13.7,29.88,NNW,338,8.1,16.3,44,0.00,,OVC,0.00,VWS V14.01,2013-01-17 19:27:00,
2013-01-17 14:30:00,33.3,13.7,29.88,NNW,338,8.1,16.3,44,0.00,,OVC,0.00,VWS V14.01,2013-01-17 19:30:00,
2013-01-17 14:32:00,33.4,14.4,29.88,NNW,338,10.7,15.7,45,0.00,,OVC,0.00,VWS V14.01,2013-01-17 19:32:00,
2013-01-17 14:37:00,33.4,14.9,29.91,NNW,338,10.1,13.0,46,0.00,,OVC,0.00,VWS V14.01,2013-01-17 19:37:00,
2013-01-17 14:42:00,33.3,13.7,29.91,WNW,292,17.0,17.0,44,0.00,,OVC,0.00,VWS V14.01,2013-01-17 19:42:00,
2013-01-17 14:47:00,33.3,14.7,29.91,WNW,292,7.6,8.7,46,0.00,,OVC,0.00,VWS V14.01,2013-01-17 19:47:00,
2013-01-17 14:52:00,32.9,14.4,29.91,NW,315,7.6,11.4,46,0.00,,OVC,0.00,VWS V14.01,2013-01-17 19:52:00,
2013-01-17 14:57:00,32.7,12.2,29.91,NNW,338,10.5,15.2,42,0.00,,OVC,0.00,VWS V14.01,2013-01-17 19:57:00,
2013-01-17 15:00:00,32.7,12.2,29.91,NNW,338,10.5,15.2,42,0.00,,OVC,0.00,VWS V14.01,2013-01-17 20:00:00,
2013-01-17 15:02:00,32.5,11.5,29.91,NW,315,7.8,15.2,41,0.00,,OVC,0.00,VWS V14.01,2013-01-17 20:02:00,
2013-01-17 15:07:00,32.2,11.1,29.91,NNW,338,10.3,10.7,41,0.00,,OVC,0.00,VWS V14.01,2013-01-17 20:07:00,
2013-01-17 15:12:00,32.0,11.0,29.91,NW,315,7.4,13.2,41,0.00,,OVC,0.00,VWS V14.01,2013-01-17 20:12:00,
2013-01-17 15:17:00,31.8,10.8,29.91,NNW,338,10.5,12.1,41,0.00,,OVC,0.00,VWS V14.01,2013-01-17 20:17:00,
2013-01-17 15:22:00,31.6,10.6,29.91,NNW,338,5.8,10.7,41,0.00,,OVC,0.00,VWS V14.01,2013-01-17 20:22:00,
2013-01-17 15:27:00,31.3,10.3,29.91,NW,315,14.5,15.9,41,0.00,,OVC,0.00,VWS V14.01,2013-01-17 20:27:00,
2013-01-17 15:30:00,31.3,10.3,29.91,NNW,338,10.7,15.9,41,0.00,,OVC,0.00,VWS V14.01,2013-01-17 20:30:00,
2013-01-17 15:32:00,30.9,9.4,29.91,NNW,338,10.1,10.3,40,0.00,,OVC,0.00,VWS V14.01,2013-01-17 20:32:00,
2013-01-17 15:37:00,30.6,9.7,29.91,NNW,338,9.6,10.3,41,0.00,,OVC,0.00,VWS V14.01,2013-01-17 20:37:00,
2013-01-17 15:42:00,30.4,9.5,29.91,NNW,338,7.6,10.3,41,0.00,,OVC,0.00,VWS V14.01,2013-01-17 20:42:00,
2013-01-17 15:47:00,30.2,9.4,29.91,WNW,292,10.5,10.5,41,0.00,,OVC,0.00,VWS V14.01,2013-01-17 20:47:00,
2013-01-17 15:52:00,30.0,9.2,29.94,NNW,338,10.3,11.2,41,0.00,,OVC,0.00,VWS V14.01,2013-01-17 20:52:00,
2013-01-17 15:57:00,29.7,8.9,29.94,NNW,338,7.8,11.2,41,0.00,,OVC,0.00,VWS V14.01,2013-01-17 20:57:00,
2013-01-17 16:00:00,29.7,8.9,29.94,NNW,338,7.8,11.2,41,0.00,,OVC,0.00,VWS V14.01,2013-01-17 21:00:00,
2013-01-17 16:02:00,29.1,8.4,29.94,North,0,10.5,11.0,41,0.00,,OVC,0.00,VWS V14.01,2013-01-17 21:02:00,
2013-01-17 16:07:00,28.4,6.1,29.97,NW,315,11.4,15.2,38,0.00,,OVC,0.00,VWS V14.01,2013-01-17 21:07:00,
2013-01-17 16:12:00,27.9,4.4,29.97,NW,315,10.1,14.3,36,0.00,,OVC,0.00,VWS V14.01,2013-01-17 21:12:00,
2013-01-17 16:18:00,27.3,3.3,29.97,NW,315,10.1,10.1,35,0.00,,OVC,0.00,VWS V14.01,2013-01-17 21:18:00,
2013-01-17 16:23:00,27.0,1.7,29.97,NW,315,10.1,10.1,33,0.00,,OVC,0.00,VWS V14.01,2013-01-17 21:23:00,
2013-01-17 16:28:00,26.4,1.9,29.97,NW,315,10.1,10.1,34,0.00,,OVC,0.00,VWS V14.01,2013-01-17 21:28:00,
2013-01-17 16:30:00,26.6,2.0,29.97,NW,315,10.1,10.1,34,0.00,,OVC,0.00,VWS V14.01,2013-01-17 21:30:00,
2013-01-17 16:33:00,26.2,1.7,29.97,WNW,292,10.5,13.0,34,0.00,,OVC,0.00,VWS V14.01,2013-01-17 21:33:00,
2013-01-17 16:38:00,26.1,0.2,29.97,NNW,338,8.7,12.8,32,0.00,,OVC,0.00,VWS V14.01,2013-01-17 21:38:00,
2013-01-17 16:43:00,25.7,-0.1,29.97,NW,315,6.0,11.0,32,0.00,,OVC,0.00,VWS V14.01,2013-01-17 21:43:00,
2013-01-17 16:48:00,25.3,-0.4,29.97,NW,315,6.5,8.7,32,0.00,,OVC,0.00,VWS V14.01,2013-01-17 21:48:00,
2013-01-17 16:53:00,25.2,-0.5,30.00,NW,315,6.5,10.1,32,0.00,,OVC,0.00,VWS V14.01,2013-01-17 21:53:00,
2013-01-17 16:58:00,25.0,-0.7,30.00,NW,315,12.3,12.5,32,0.00,,OVC,0.00,VWS V14.01,2013-01-17 21:58:00,
2013-01-17 17:00:00,25.0,-1.4,30.00,NNW,338,5.8,11.0,31,0.00,,OVC,0.00,VWS V14.01,2013-01-17 22:00:00,
2013-01-17 17:03:00,24.8,-0.9,30.00,NNW,338,6.3,10.5,32,0.00,,OVC,0.00,VWS V14.01,2013-01-17 22:03:00,
2013-01-17 17:08:00,24.4,-1.2,30.00,NNW,338,11.9,11.9,32,0.00,,OVC,0.00,VWS V14.01,2013-01-17 22:08:00,
2013-01-17 17:13:00,24.1,-1.5,30.00,NNW,338,7.8,8.5,32,0.00,,OVC,0.00,VWS V14.01,2013-01-17 22:13:00,
2013-01-17 17:18:00,24.1,-1.5,30.00,NNW,338,11.0,11.0,32,0.00,,OVC,0.00,VWS V14.01,2013-01-17 22:18:00,
2013-01-17 17:23:00,23.9,-1.7,30.00,NNW,338,10.3,13.9,32,0.00,,OVC,0.00,VWS V14.01,2013-01-17 22:23:00,
2013-01-17 17:28:00,23.5,-2.0,30.00,NNW,338,10.5,10.5,32,0.00,,OVC,0.00,VWS V14.01,2013-01-17 22:28:00,
2013-01-17 17:30:00,23.5,-2.0,30.00,NNW,338,8.7,10.5,32,0.00,,OVC,0.00,VWS V14.01,2013-01-17 22:30:00,
2013-01-17 17:33:00,23.4,-2.1,30.00,NW,315,14.8,14.8,32,0.00,,OVC,0.00,VWS V14.01,2013-01-17 22:33:00,
2013-01-17 17:38:00,22.8,-2.0,30.00,NW,315,8.1,12.1,33,0.00,,OVC,0.00,VWS V14.01,2013-01-17 22:38:00,
2013-01-17 17:43:00,22.6,-2.1,30.00,NNW,338,6.3,10.1,33,0.00,,OVC,0.00,VWS V14.01,2013-01-17 22:43:00,
2013-01-17 17:48:00,22.5,-2.3,30.00,NNW,338,5.6,5.6,33,0.00,,OVC,0.00,VWS V14.01,2013-01-17 22:48:00,
2013-01-17 17:53:00,22.3,-2.4,30.03,NNW,338,2.9,7.4,33,0.00,,OVC,0.00,VWS V14.01,2013-01-17 22:53:00,
2013-01-17 17:58:00,21.9,-2.8,30.03,NNW,338,8.5,9.8,33,0.00,,OVC,0.00,VWS V14.01,2013-01-17 22:58:00,
2013-01-17 18:00:00,22.1,-2.6,30.03,NNW,338,9.8,9.8,33,0.00,,OVC,0.00,VWS V14.01,2013-01-17 23:00:00,
2013-01-17 18:03:00,21.7,-2.9,30.03,NNW,338,10.1,13.2,33,0.00,,OVC,0.00,VWS V14.01,2013-01-17 23:03:00,
2013-01-17 18:08:00,21.4,-3.2,30.03,NNW,338,6.0,7.8,33,0.00,,OVC,0.00,VWS V14.01,2013-01-17 23:08:00,
2013-01-17 18:13:00,21.2,-2.8,30.03,North,0,6.0,7.2,34,0.00,,OVC,0.00,VWS V14.01,2013-01-17 23:13:00,
2013-01-17 18:18:00,20.8,-3.7,30.03,NW,315,9.8,9.8,33,0.00,,OVC,0.00,VWS V14.01,2013-01-17 23:18:00,
2013-01-17 18:23:00,20.5,-4.0,30.03,NW,315,8.5,8.5,33,0.00,,OVC,0.00,VWS V14.01,2013-01-17 23:23:00,
2013-01-17 18:28:00,20.1,-4.4,30.03,NNE,22,5.6,5.8,33,0.00,,OVC,0.00,VWS V14.01,2013-01-17 23:28:00,
2013-01-17 18:30:00,20.3,-4.2,30.03,North,0,5.4,5.4,33,0.00,,OVC,0.00,VWS V14.01,2013-01-17 23:30:00,
2013-01-17 18:33:00,19.9,-4.5,30.03,NW,315,6.0,7.4,33,0.00,,OVC,0.00,VWS V14.01,2013-01-17 23:33:00,
2013-01-17 18:38:00,19.8,-4.7,30.06,NW,315,8.7,8.7,33,0.00,,OVC,0.00,VWS V14.01,2013-01-17 23:38:00,
2013-01-17 18:43:00,19.6,-4.8,30.06,NNW,338,10.3,10.3,33,0.00,,OVC,0.00,VWS V14.01,2013-01-17 23:43:00,
2013-01-17 18:48:00,19.2,-5.2,30.06,NW,315,9.4,9.4,33,0.00,,OVC,0.00,VWS V14.01,2013-01-17 23:48:00,
2013-01-17 18:53:00,19.0,-5.3,30.06,North,0,7.8,12.1,33,0.00,,OVC,0.00,VWS V14.01,2013-01-17 23:53:00,
2013-01-17 18:58:00,18.9,-5.5,30.06,NNW,338,6.5,7.2,33,0.00,,OVC,0.00,VWS V14.01,2013-01-17 23:58:00,
2013-01-17 19:00:00,18.9,-5.5,30.06,WNW,292,6.5,8.1,33,0.00,,OVC,0.00,VWS V14.01,2013-01-18 00:00:00,
2013-01-17 19:03:00,18.5,-5.8,30.06,NNW,338,8.7,9.8,33,0.00,,OVC,0.00,VWS V14.01,2013-01-18 00:03:00,
2013-01-17 19:08:00,18.1,-6.1,30.09,NNW,338,10.1,10.1,33,0.00,,OVC,0.00,VWS V14.01,2013-01-18 00:08:00,
2013-01-17 19:13:00,17.8,-6.4,30.09,NNW,338,10.7,10.7,33,0.00,,OVC,0.00,VWS V14.01,2013-01-18 00:13:00,
2013-01-17 19:18:00,17.4,-8.0,30.09,NNW,338,10.1,17.5,31,0.00,,OVC,0.00,VWS V14.01,2013-01-18 00:18:00,
2013-01-17 19:23:00,17.1,-8.4,30.09,NNW,338,5.6,9.0,31,0.00,,OVC,0.00,VWS V14.01,2013-01-18 00:23:00,
2013-01-17 19:28:00,16.9,-8.5,30.09,NNW,338,6.5,8.7,31,0.00,,OVC,0.00,VWS V14.01,2013-01-18 00:28:00,
2013-01-17 19:30:00,17.1,-8.4,30.09,NNW,338,6.3,7.4,31,0.00,,OVC,0.00,VWS V14.01,2013-01-18 00:30:00,
2013-01-17 19:33:00,16.9,-8.5,30.09,NNW,338,7.2,10.1,31,0.00,,OVC,0.00,VWS V14.01,2013-01-18 00:33:00,
2013-01-17 19:38:00,16.7,-7.4,30.09,NNW,338,4.9,8.5,33,0.00,,OVC,0.00,VWS V14.01,2013-01-18 00:38:00,
2013-01-17 19:43:00,16.5,-7.6,30.09,NNW,338,6.3,7.6,33,0.00,,OVC,0.00,VWS V14.01,2013-01-18 00:43:00,
2013-01-17 19:48:00,16.5,-7.6,30.09,NNW,338,6.3,6.5,33,0.00,,OVC,0.00,VWS V14.01,2013-01-18 00:48:00,
2013-01-17 19:54:00,16.2,-7.9,30.09,North,0,4.7,5.6,33,0.00,,OVC,0.00,VWS V14.01,2013-01-18 00:54:00,
2013-01-17 19:58:00,16.0,-9.3,30.09,NNW,338,6.9,8.1,31,0.00,,OVC,0.00,VWS V14.01,2013-01-18 00:58:00,
2013-01-17 20:00:00,16.0,-8.0,30.09,NNW,338,5.6,7.4,33,0.00,,OVC,0.00,VWS V14.01,2013-01-18 01:00:00,
2013-01-17 20:04:00,15.8,-9.5,30.09,NNW,338,4.3,10.1,31,0.00,,OVC,0.00,VWS V14.01,2013-01-18 01:04:00,
2013-01-17 20:09:00,15.4,-9.8,30.09,NNW,338,6.3,6.3,31,0.00,,OVC,0.00,VWS V14.01,2013-01-18 01:09:00,
2013-01-17 20:14:00,15.4,-9.8,30.09,NNW,338,5.6,8.7,31,0.00,,OVC,0.00,VWS V14.01,2013-01-18 01:14:00,
2013-01-17 20:19:00,15.1,-10.1,30.09,NNW,338,7.8,11.0,31,0.00,,OVC,0.00,VWS V14.01,2013-01-18 01:19:00,
2013-01-17 20:24:00,14.9,-11.6,30.09,NNW,338,9.0,10.5,29,0.00,,OVC,0.00,VWS V14.01,2013-01-18 01:24:00,
2013-01-17 20:29:00,14.5,-10.6,30.09,NNW,338,7.2,8.1,31,0.00,,OVC,0.00,VWS V14.01,2013-01-18 01:29:00,
2013-01-17 20:30:00,14.7,-10.4,30.09,NNW,338,8.1,10.1,31,0.00,,OVC,0.00,VWS V14.01,2013-01-18 01:30:00,
2013-01-17 20:34:00,14.5,-10.6,30.09,NNW,338,6.3,9.6,31,0.00,,OVC,0.00,VWS V14.01,2013-01-18 01:34:00,
2013-01-17 20:39:00,14.4,-10.7,30.09,NNW,338,7.8,7.8,31,0.00,,OVC,0.00,VWS V14.01,2013-01-18 01:39:00,
2013-01-17 20:44:00,14.4,-10.7,30.09,NNW,338,5.4,5.4,31,0.00,,OVC,0.00,VWS V14.01,2013-01-18 01:44:00,
2013-01-17 20:49:00,14.4,-8.9,30.09,NNW,338,3.8,6.5,34,0.00,,OVC,0.00,VWS V14.01,2013-01-18 01:49:00,
2013-01-17 20:54:00,14.2,-9.0,30.12,NW,315,7.6,8.1,34,0.00,,OVC,0.00,VWS V14.01,2013-01-18 01:54:00,
2013-01-17 20:59:00,13.8,-10.6,30.12,NNW,338,5.4,6.9,32,0.00,,OVC,0.00,VWS V14.01,2013-01-18 01:59:00,
2013-01-17 21:00:00,14.2,-10.9,30.12,NNW,338,6.5,8.5,31,0.00,,OVC,0.00,VWS V14.01,2013-01-18 02:00:00,
2013-01-17 21:04:00,13.8,-10.6,30.12,NNW,338,7.6,7.6,32,0.00,,OVC,0.00,VWS V14.01,2013-01-18 02:04:00,
2013-01-17 21:09:00,13.6,-10.7,30.12,NNW,338,3.6,7.4,32,0.00,,OVC,0.00,VWS V14.01,2013-01-18 02:09:00,
2013-01-17 21:14:00,13.5,-10.9,30.12,NNW,338,7.2,7.2,32,0.00,,OVC,0.00,VWS V14.01,2013-01-18 02:14:00,
2013-01-17 21:19:00,13.5,-10.9,30.12,NNW,338,6.0,6.3,32,0.00,,OVC,0.00,VWS V14.01,2013-01-18 02:19:00,
2013-01-17 21:24:00,13.3,-11.1,30.12,NNW,338,2.7,7.4,32,0.00,,OVC,0.00,VWS V14.01,2013-01-18 02:24:00,
2013-01-17 21:29:00,13.1,-11.2,30.12,NNW,338,3.1,5.4,32,0.00,,OVC,0.00,VWS V14.01,2013-01-18 02:29:00,
2013-01-17 21:30:00,13.3,-11.1,30.12,NNW,338,4.3,6.0,32,0.00,,OVC,0.00,VWS V14.01,2013-01-18 02:30:00,
2013-01-17 21:34:00,12.9,-11.4,30.12,NNW,338,5.8,5.8,32,0.00,,OVC,0.00,VWS V14.01,2013-01-18 02:34:00,
2013-01-17 21:39:00,12.7,-11.5,30.09,NNW,338,4.9,5.6,32,0.00,,OVC,0.00,VWS V14.01,2013-01-18 02:39:00,
2013-01-17 21:44:00,12.6,-11.7,30.09,NNW,338,4.9,7.6,32,0.00,,OVC,0.00,VWS V14.01,2013-01-18 02:44:00,
2013-01-17 21:49:00,12.4,-11.9,30.09,NNW,338,3.8,5.4,32,0.00,,OVC,0.00,VWS V14.01,2013-01-18 02:49:00,
2013-01-17 21:54:00,12.2,-12.0,30.09,NNW,338,4.3,5.4,32,0.00,,OVC,0.00,VWS V14.01,2013-01-18 02:54:00,
2013-01-17 21:59:00,12.0,-12.2,30.09,NNW,338,5.6,6.5,32,0.00,,OVC,0.00,VWS V14.01,2013-01-18 02:59:00,
2013-01-17 22:00:00,12.2,-12.0,30.09,NNW,338,5.4,5.4,32,0.00,,OVC,0.00,VWS V14.01,2013-01-18 03:00:00,
2013-01-17 22:04:00,12.0,-12.2,30.09,NNW,338,4.3,5.6,32,0.00,,OVC,0.00,VWS V14.01,2013-01-18 03:04:00,
2013-01-17 22:09:00,11.8,-12.3,30.09,NNW,338,6.5,8.5,32,0.00,,OVC,0.00,VWS V14.01,2013-01-18 03:09:00,
2013-01-17 22:14:00,11.8,-12.3,30.09,NNW,338,4.0,7.8,32,0.00,,OVC,0.00,VWS V14.01,2013-01-18 03:14:00,
2013-01-17 22:19:00,11.8,-12.3,30.09,NNW,338,2.7,3.6,32,0.00,,OVC,0.00,VWS V14.01,2013-01-18 03:19:00,
2013-01-17 22:24:00,11.7,-12.5,30.09,NNE,22,3.6,3.6,32,0.00,,OVC,0.00,VWS V14.01,2013-01-18 03:24:00,
2013-01-17 22:29:00,11.5,-12.6,30.09,NNW,338,5.6,5.6,32,0.00,,OVC,0.00,VWS V14.01,2013-01-18 03:29:00,
2013-01-17 22:30:00,11.7,-12.5,30.09,NNW,338,3.6,4.9,32,0.00,,OVC,0.00,VWS V14.01,2013-01-18 03:30:00,
2013-01-17 22:34:00,11.3,-12.8,30.09,NNW,338,5.8,6.9,32,0.00,,OVC,0.00,VWS V14.01,2013-01-18 03:34:00,
2013-01-17 22:39:00,11.3,-12.8,30.09,NNW,338,3.8,4.9,32,0.00,,OVC,0.00,VWS V14.01,2013-01-18 03:39:00,
2013-01-17 22:44:00,11.1,-13.0,30.09,NNW,338,3.4,4.9,32,0.00,,OVC,0.00,VWS V14.01,2013-01-18 03:44:00,
2013-01-17 22:49:00,10.9,-13.1,30.09,NNW,338,6.0,7.8,32,0.00,,OVC,0.00,VWS V14.01,2013-01-18 03:49:00,
2013-01-17 22:54:00,10.9,-13.1,30.09,NNW,338,4.9,6.0,32,0.00,,OVC,0.00,VWS V14.01,2013-01-18 03:54:00,
2013-01-17 22:59:00,10.8,-13.3,30.09,NNW,338,5.4,5.8,32,0.00,,OVC,0.00,VWS V14.01,2013-01-18 03:59:00,
2013-01-17 23:00:00,10.8,-13.3,30.09,NNW,338,6.3,6.3,32,0.00,,OVC,0.00,VWS V14.01,2013-01-18 04:00:00,
2013-01-17 23:04:00,10.8,-13.3,30.09,NNW,338,5.4,5.4,32,0.00,,OVC,0.00,VWS V14.01,2013-01-18 04:04:00,
2013-01-17 23:09:00,10.8,-13.3,30.09,NW,315,7.4,7.4,32,0.00,,OVC,0.00,VWS V14.01,2013-01-18 04:09:00,
2013-01-17 23:14:00,10.6,-13.4,30.09,NNW,338,2.9,4.3,32,0.00,,OVC,0.00,VWS V14.01,2013-01-18 04:14:00,
2013-01-17 23:19:00,10.4,-13.6,30.09,NNW,338,4.0,6.5,32,0.00,,OVC,0.00,VWS V14.01,2013-01-18 04:19:00,
2013-01-17 23:24:00,10.2,-13.8,30.12,NNW,338,3.1,8.1,32,0.00,,OVC,0.00,VWS V14.01,2013-01-18 04:24:00,
2013-01-17 23:29:00,10.2,-13.8,30.12,NNW,338,4.0,4.3,32,0.00,,OVC,0.00,VWS V14.01,2013-01-18 04:29:00,
2013-01-17 23:30:00,10.2,-13.8,30.12,NNW,338,3.1,4.0,32,0.00,,OVC,0.00,VWS V14.01,2013-01-18 04:30:00,
2013-01-17 23:34:00,10.0,-13.9,30.12,NNW,338,2.7,5.6,32,0.00,,OVC,0.00,VWS V14.01,2013-01-18 04:34:00,
2013-01-17 23:39:00,10.0,-13.9,30.09,NNW,338,4.5,7.4,32,0.00,,OVC,0.00,VWS V14.01,2013-01-18 04:39:00,
2013-01-17 23:44:00,9.9,-14.1,30.09,NNW,338,5.6,6.3,32,0.00,,OVC,0.00,VWS V14.01,2013-01-18 04:44:00,
2013-01-17 23:49:00,9.7,-14.2,30.09,NNW,338,5.8,7.4,32,0.00,,OVC,0.00,VWS V14.01,2013-01-18 04:49:00,
2013-01-17 23:54:00,9.7,-14.2,30.09,NNW,338,5.6,7.4,32,0.00,,OVC,0.00,VWS V14.01,2013-01-18 04:54:00,
2013-01-17 23:59:00,9.7,-14.2,30.09,NNW,338,5.8,7.8,32,0.00,,OVC,0.00,VWS V14.01,2013-01-18 04:59:00,